User: anonymous   Login
Location: Caltech
(34.1382°N, 118.1253°W)
Time: 03:08:01
(UTC-07:00)
Language:

Aureole 3 Rocket - Orbit

View from above orbital plane
View from above orbital plane
View from above satellite
View from above satellite

Ground track
Ground track

The orbit data is extracted from the following two-line orbital elements,

1 12849U 81094B   17232.81050908  .00000168  00000-0  14675-4 0  9994
2 12849  82.4931 117.1669 0901997 241.2415 109.5259 13.50183652750645
Epoch (UTC): 20 August 2017 19:27:07
Eccentricity: 0.0901997
inclination: 82.4931°
perigee height: 399 km
apogee height: 1743 km
right ascension of ascending node: 117.1669°
argument of perigee: 241.2415°
revolutions per day: 13.50183652
mean anomaly at epoch: 109.5259°
orbit number at epoch: 75064

The dashed part of the orbit path shows where the satellite is in the earth's shadow,  

DLR